User: anonymous   Login
Location: ???? ?????????
(31.1304°N, 31.7111°E)
Time: 12:32:48
(UTC+00:00)
Language:

Cosmos 1455 - Orbit

View from above orbital plane
View from above orbital plane
View from above satellite
View from above satellite

Ground track
Ground track

The orbit data is extracted from the following two-line orbital elements,

1 14032U 83037A   21019.05529152  .00000603  00000-0  27426-4 0  9997
2 14032  82.5141 230.2523 0017932  40.8160 319.4414 15.18586735 60372
Epoch (UTC): 19 January 2021 01:19:37
Eccentricity: 0.0017932
inclination: 82.5141°
perigee height: 498 km
apogee height: 522 km
right ascension of ascending node: 230.2523°
argument of perigee: 40.8160°
revolutions per day: 15.18586735
mean anomaly at epoch: 319.4414°
orbit number at epoch: 6037

The dashed part of the orbit path shows where the satellite is in the earth's shadow,  

DLR